Location: Newark
(40.9833°N, 0.0333°W)
Time: 20:23:21
(UTC+00:00)

Vanguard 2 Rocket - Pass Details

Date: 05 November 2020
Orbit: 554 x 3326 km, 32.9° (Epoch: 25 November)

Event Time Altitude Azimuth Distance (km) Brightness Sun altitude
Rises 19:23:14 0° 259° (W) 2,735 10.5 -29.1°
Reaches altitude 10° 19:25:56 10° 239° (WSW) 1,826 9.1 -29.6°
Enters shadow 19:27:32 16° 215° (SW) 1,498 8.3 -29.9°
Maximum altitude 19:28:42 18° 194° (SSW) 1,448 - -30.1°
Drops below altitude 10° 19:31:47 10° 150° (SSE) 2,074 - -30.7°
Sets 19:35:09 0° 131° (SE) 3,283 - -31.3°
